Location: Hermaringen
(48.5952°N, 10.2585°E)
Time: 21:27:13
(UTC+00:00)

Cosmos 841 Rocket - Pass Details

Date: 18 November 2025
Orbit: 742 x 768 km, 74.0° (Epoch: 04 December)

Event Time Altitude Azimuth Distance (km) Brightness Sun altitude
Rises 17:26:32 0° 338° (NNW) 3,248 6.9 -18.0°
Reaches altitude 10° 17:28:56 10° 341° (NNW) 2,319 6.1 -18.4°
Maximum altitude 17:34:11 66° 64° (ENE) 838 3.4 -19.3°
Enters shadow 17:38:53 13° 146° (SSE) 2,113 5.5 -20.1°
